Regional Weather Roundup
Issued by NWS

Home | Current Version | Previous Version | Text Only | Print | Product List | Glossary On
Versions: 1 2 3 4 5 6 7 8 9 10 11 12 13 14 15 16 17 18 19 20 21 22 23 24 25 26 27 28 29 30 31 32 33 34 35 36 37 38 39 40 41 42 43 44 45 46 47 48 49 50
000
ASUS43 KMKX 231200
RWRWI

WISCONSIN REGIONAL WEATHER ROUNDUP
NATIONAL WEATHER SERVICE MILWAUKEE/SULLIVAN WI
700 AM CDT SUN APR 23 2017

NOTE: "FAIR" INDICATES FEW OR NO CLOUDS BELOW 12,000 FEET WITH NO
SIGNIFICANT WEATHER AND/OR OBSTRUCTIONS TO VISIBILITY.

WIZ001-002-006>008-014>016-023>028-231300-
NORTHWEST WISCONSIN

CITY           SKY/WX    TMP DP  RH WIND       PRES   REMARKS
SUPERIOR ARPT  RAIN      36  35  94 NE6       30.19R WCI  31
ASHLAND        LGT SNOW  33  32  96 NE13      30.20R VSB 3/4 WCI  24
6HR MIN TEMP:  33; 6HR MAX TEMP:  45; 6HR PCP:  0.04;

HAYWARD        CLOUDY    42  36  79 NE14G21   30.14R
6HR MIN TEMP:  41; 6HR MAX TEMP:  48;

SIREN          MOCLDY    44  37  75 N9G16     30.13R
CUMBERLAND     CLOUDY    43  36  75 N8        30.09R
RICE LAKE      CLOUDY    45  38  77 N9        30.10R
6HR MIN TEMP:  45; 6HR MAX TEMP:  51;

CHETEK         CLOUDY    46  37  72 E8        30.08R
LADYSMITH      CLOUDY    45  38  78 N10       30.11R
6HR MIN TEMP:  42; 6HR MAX TEMP:  51;

EAU CLAIRE     NOT AVBL
MENOMONIE      CLEAR     45  36  69 CALM      30.08R
6HR MIN TEMP:  43; 6HR MAX TEMP:  50;

NEW RICHMOND   CLEAR     42  36  78 N6        30.09R
OSCEOLA        MOCLDY    45  38  78 CALM      30.12R
$$

WIZ003>005-009-010-017-018-231300-
NORTH CENTRAL WISCONSIN

CITY           SKY/WX    TMP DP  RH WIND       PRES   REMARKS
MANITOWISH WTR CLOUDY    38  38 100 N6        30.11R WCI  33
6HR MIN TEMP:  38; 6HR MAX TEMP:  44;

ARBOR VITAE    CLOUDY    43  39  88 N8        30.07R
WOODRUFF       CLOUDY    43  39  88 N8        30.07R
RHINELANDER    CLOUDY    44  39  82 NE8       30.08R
6HR MIN TEMP:  43; 6HR MAX TEMP:  50;

EAGLE RIVER    CLOUDY    41  36  82 NE7G16    30.07R
LAND O LAKES   CLOUDY    37  35  94 NE8       30.12R WCI  31
6HR MIN TEMP:  37; 6HR MAX TEMP:  44;

PHILLIPS       CLOUDY    42  40  91 N9        30.08R
6HR MIN TEMP:  42; 6HR MAX TEMP:  50;

TOMAHAWK       CLOUDY    41  36  81 CALM      30.07R
MEDFORD        CLOUDY    42  35  74 W3        30.05S
MERRILL        CLOUDY    39  35  84 CALM      30.07R
6HR MIN TEMP:  36; 6HR MAX TEMP:  47;

$$

WIZ029-030-035-036-043>047-231300-
CENTRAL WISCONSIN

CITY           SKY/WX    TMP DP  RH WIND       PRES   REMARKS
WAUSAU         CLOUDY    45  35  68 CALM      30.05R
6HR MIN TEMP:  45; 6HR MAX TEMP:  53;

MOSINEE        MOCLDY    46  36  66 NW7G18    30.07R
MARSHFIELD     CLOUDY    44  33  65 SW7       30.05R
6HR MIN TEMP:  42; 6HR MAX TEMP:  49;

STEVENS POINT  CLOUDY    40  31  68 SW3       30.06S
WAUPACA        CLOUDY    48  31  51 SW3       30.07S
6HR MIN TEMP:  40; 6HR MAX TEMP:  48;

WAUTOMA        CLEAR     36  34  92 CALM      30.09S
6HR MIN TEMP:  32; 6HR MAX TEMP:  37;

WISC RAPIDS    PTCLDY    45  34  65 SW6       30.08R
6HR MIN TEMP:  38; 6HR MAX TEMP:  45;

CAMP DOUGLAS   NOT AVBL
$$

WIZ011>013-019>022-031-037>040-048>050-231300-
NORTHEAST WISCONSIN

CITY           SKY/WX    TMP DP  RH WIND       PRES   REMARKS
ANTIGO         MOCLDY    39  34  82 CALM      30.06R
SHAWANO        MOSUNNY   47  32  56 CALM      30.06R
6HR MIN TEMP:  41; 6HR MAX TEMP:  50;

OCONTO         CLOUDY    47  31  54 W5        30.04S
STURGEON BAY   MOSUNNY   50  35  56 NW8       30.08R
6HR MIN TEMP:  49; 6HR MAX TEMP:  53;

GREEN BAY      CLOUDY    46  36  68 SW3       30.06S
6HR MIN TEMP:  45; 6HR MAX TEMP:  50;

MANITOWOC      NOT AVBL
APPLETON       PTSUNNY   46  28  49 SW9       30.06S
CLINTONVILLE   CLOUDY    45  32  61 SW3       30.05S
OSHKOSH        SUNNY     49  31  49 SW6       30.08S
6HR MIN TEMP:  46; 6HR MAX TEMP:  50;

$$

WIZ032>034-041-042-053>061-231300-
SOUTHWEST WISCONSIN

CITY           SKY/WX    TMP DP  RH WIND       PRES   REMARKS
LA CROSSE      PTCLDY    48  40  73 S8        30.10R
6HR MIN TEMP:  46; 6HR MAX TEMP:  50;

SPARTA         CLEAR     32  31  95 CALM      30.10S
6HR MIN TEMP:  30; 6HR MAX TEMP:  35;

VIROQUA        PTCLDY    45  30  55 SW6       30.11S
6HR MIN TEMP:  44; 6HR MAX TEMP:  50;

BOSCOBEL       CLEAR     36  33  89 SW3       30.14S
6HR MIN TEMP:  33; 6HR MAX TEMP:  39;

PRAIRIE DU CHI CLEAR     37  32  83 CALM      30.14S
PLATTEVILLE    CLEAR     42  32  67 SW5       30.15R
$$

WIZ056-057-062-063-064-067-068-231300-
SOUTH CENTRAL WISCONSIN

CITY           SKY/WX    TMP DP  RH WIND       PRES   REMARKS
REEDSBURG      CLEAR     38  35  87 CALM      30.11S
6HR MIN TEMP:  35; 6HR MAX TEMP:  42;

BARABOO/DELLS  CLEAR     42  29  59 SW5       30.11S
LONE ROCK      NOT AVBL
MINERAL POINT  CLEAR     43  32  65 SW5       30.14R
MADISON        PTCLDY    39  33  79 S3        30.13R
6HR MIN TEMP:  36; 6HR MAX TEMP:  43;

MIDDLETON      CLEAR     39  36  89 CALM      30.13R
6HR MIN TEMP:  37; 6HR MAX TEMP:  43;

WATERTOWN      CLEAR     40  30  68 CALM      30.12R
MONROE         CLEAR     45  28  53 SW9       30.13S
JANESVILLE     CLEAR     36  34  93 CALM      30.14R
$$

WIZ051-052-058>065-066-070>072-231300-
SOUTHEAST WISCONSIN

CITY           SKY/WX    TMP DP  RH WIND       PRES   REMARKS
MILWAUKEE      SUNNY     50  25  37 W5        30.13R
6HR MIN TEMP:  41; 6HR MAX TEMP:  50;

WAUKESHA       SUNNY     36  27  69 CALM      30.13S
MILWAUKEE/TIMM SUNNY     39  25  56 W3        30.13R
RACINE         SUNNY     47  25  42 W5        30.15R
6HR MIN TEMP:  37; 6HR MAX TEMP:  47;

KENOSHA        SUNNY     37  31  78 SW3       30.14R
6HR MIN TEMP:  33; 6HR MAX TEMP:  41;

FOND DU LAC    SUNNY     47  31  53 SW8       30.10R
6HR MIN TEMP:  44; 6HR MAX TEMP:  47;

SHEBOYGAN      MOSUNNY   42  33  70 SW7       30.10R
6HR MIN TEMP:  39; 6HR MAX TEMP:  45;

WEST BEND      SUNNY     45  28  53 SW5       30.11R
JUNEAU         CLEAR     39  32  74 CALM      30.12S
$$

LSZ147-162-231300-
LAKE SUPERIOR

STATION/POSITION TIME  TEMP    WIND        PRES    WAVE
                       AIR SEA DIR/SP/G            HT/PER
                 (UTC) (F)     (DEG/KT/KT) (MB)    (FT/S)
DEVILS ISLAND    1100   33      20/ 14/ 15 1023.0R
PORT WING        1130   35      40/ 13/ 15 1022.4R
SAXON HARBOR     1130   35      40/ 14/ 16 1021.3R
$$

LMZ867-665-643>646-231300-
LAKE MICHIGAN

STATION/POSITION TIME  TEMP    WIND        PRES    WAVE
                       AIR SEA DIR/SP/G            HT/PER
                 (UTC) (F)     (DEG/KT/KT) (MB)    (FT/S)
CHAMBERS ISLAND  1140   41      30/ 11/ 15 1018.6R
N MID LAKE BUOY  1050   41 37  360/ 10/ 12 1018.8R   2/ 4
NORTHPORT PIER   1140   42     360/ 10/ 13 1019.0R
SISTER BAY       0951   42     300/  8/  8   N/A
KEWAUNEE LAKESHO 1130   48     270/  6/  9 1017.3S
SHEBOYGAN LAKESH 1100   48     250/ 10/ 11 1018.8R
PORT WASHINGTON  1140   50     270/  6/ 10 1020.3R
MILWAUKEE LAKESH 1130   51     280/ 11/ 13   N/A
KENOSHA   LAKESH 1100   45     250/  6/  8 1020.3
$$

TC  - TEMPERATURE IN CELSIUS
VSB - VISIBILITY IN STATUTE MILES
WCI - WIND CHILL INDEX
HX  - HEAT INDEX





USA.gov is the U.S. government's official web portal to all federal, state and local government web resources and services.